Location: Gradaro
(45.0833°N, 10.8833°E)
Time: 21:30:31
(UTC+00:00)

BREEZE-M DEB (TANK) - Pass Details

Date: 29 November 2020
Orbit: 311 x 15409 km, 49.5° (Epoch: 20 January)

Event Time Altitude Azimuth Distance (km) Brightness Sun altitude
Exits shadow 02:40:39 66° 111° (ESE) 1,634 4.6 -40.3°
Drops below altitude 10° 03:00:21 10° 64° (ENE) 8,723 9.0 -36.8°
Sets 03:13:52 0° 65° (ENE) 12,613 10.1 -34.4°
